Time,TemperatureF,DewpointF,PressureIn,WindDirection,WindDirectionDegrees,WindSpeedMPH,WindSpeedGustMPH,Humidity,HourlyPrecipIn,Conditions,Clouds,dailyrainin,SoftwareType,DateUTC
2013-05-16 00:01:00,58.0,50.8,29.65,West,270,0.5,1.1,77,0.00,,,0.00,WUHU216HW,2013-05-16 07:01:00,
2013-05-16 00:06:00,58.0,51.1,29.65,NW,315,0.5,1.1,78,0.00,,,0.00,WUHU216HW,2013-05-16 07:06:00,
2013-05-16 00:11:00,57.8,50.9,29.65,NW,315,0.5,1.1,78,0.00,,,0.00,WUHU216HW,2013-05-16 07:11:00,
2013-05-16 00:16:00,57.6,50.8,29.64,NW,315,0.7,1.1,78,0.00,,,0.00,WUHU216HW,2013-05-16 07:16:00,
2013-05-16 00:21:00,57.6,50.8,29.64,West,270,0.3,0.9,78,0.00,,,0.00,WUHU216HW,2013-05-16 07:21:00,
2013-05-16 00:26:00,57.4,50.6,29.64,NW,315,0.3,0.4,78,0.00,,,0.00,WUHU216HW,2013-05-16 07:26:00,
2013-05-16 00:31:00,57.4,50.6,29.64,NW,315,0.3,0.7,78,0.00,,,0.00,WUHU216HW,2013-05-16 07:31:00,
2013-05-16 00:36:00,57.2,50.8,29.64,NW,315,0.4,0.7,79,0.00,,,0.00,WUHU216HW,2013-05-16 07:36:00,
2013-05-16 00:41:00,57.2,50.4,29.64,NW,315,0.0,0.4,78,0.00,,,0.00,WUHU216HW,2013-05-16 07:41:00,
2013-05-16 00:46:00,57.2,50.8,29.64,WNW,293,0.0,1.1,79,0.00,,,0.00,WUHU216HW,2013-05-16 07:46:00,
2013-05-16 00:51:00,57.1,50.6,29.63,WNW,293,0.0,1.1,79,0.00,,,0.00,WUHU216HW,2013-05-16 07:51:00,
2013-05-16 00:56:00,56.9,50.4,29.63,WNW,293,0.0,0.0,79,0.00,,,0.00,WUHU216HW,2013-05-16 07:56:00,
2013-05-16 01:01:00,56.7,50.2,29.63,WNW,293,0.0,0.0,79,0.00,,,0.00,WUHU216HW,2013-05-16 08:01:00,
2013-05-16 01:06:00,56.5,50.0,29.63,WNW,293,0.0,0.0,79,0.00,,,0.00,WUHU216HW,2013-05-16 08:06:00,
2013-05-16 01:11:00,56.5,50.4,29.63,WNW,293,0.0,0.0,80,0.00,,,0.00,WUHU216HW,2013-05-16 08:11:00,
2013-05-16 01:16:00,56.3,50.2,29.63,WNW,293,0.0,0.0,80,0.00,,,0.00,WUHU216HW,2013-05-16 08:16:00,
2013-05-16 01:21:00,56.3,50.2,29.63,WNW,293,0.0,0.0,80,0.00,,,0.00,WUHU216HW,2013-05-16 08:21:00,
2013-05-16 01:26:00,56.3,50.2,29.63,WNW,293,0.0,0.0,80,0.00,,,0.00,WUHU216HW,2013-05-16 08:26:00,
2013-05-16 01:31:00,56.3,50.2,29.63,WNW,293,0.0,0.0,80,0.00,,,0.00,WUHU216HW,2013-05-16 08:31:00,
2013-05-16 01:36:00,56.3,50.2,29.63,WNW,293,0.0,0.0,80,0.00,,,0.00,WUHU216HW,2013-05-16 08:36:00,
2013-05-16 01:41:00,56.2,50.0,29.63,WNW,293,0.0,0.0,80,0.00,,,0.00,WUHU216HW,2013-05-16 08:41:00,
2013-05-16 01:46:00,56.2,50.0,29.63,WNW,293,0.0,0.0,80,0.00,,,0.00,WUHU216HW,2013-05-16 08:46:00,
2013-05-16 01:51:00,56.2,50.0,29.63,WNW,293,0.0,0.0,80,0.00,,,0.00,WUHU216HW,2013-05-16 08:51:00,
2013-05-16 01:56:00,56.2,50.4,29.62,WNW,293,0.0,0.0,81,0.00,,,0.00,WUHU216HW,2013-05-16 08:56:00,
2013-05-16 02:01:00,56.0,50.2,29.62,WNW,293,0.0,0.0,81,0.00,,,0.00,WUHU216HW,2013-05-16 09:01:00,
2013-05-16 02:06:00,56.0,50.2,29.62,WNW,293,0.0,0.0,81,0.00,,,0.00,WUHU216HW,2013-05-16 09:06:00,
2013-05-16 02:11:00,56.0,50.2,29.62,West,270,1.3,1.3,81,0.00,,,0.00,WUHU216HW,2013-05-16 09:11:00,
2013-05-16 02:16:00,56.0,50.2,29.62,West,270,0.3,1.3,81,0.00,,,0.00,WUHU216HW,2013-05-16 09:16:00,
2013-05-16 02:21:00,56.0,50.2,29.62,WSW,250,0.4,0.7,81,0.00,,,0.00,WUHU216HW,2013-05-16 09:21:00,
2013-05-16 02:26:00,55.8,50.1,29.62,WSW,245,0.6,1.1,81,0.00,,,0.00,WUHU216HW,2013-05-16 09:26:00,
2013-05-16 02:31:00,55.8,50.1,29.62,SW,225,0.0,1.1,81,0.00,,,0.00,WUHU216HW,2013-05-16 09:31:00,
2013-05-16 02:36:00,55.8,50.1,29.61,NW,315,0.4,0.4,81,0.00,,,0.00,WUHU216HW,2013-05-16 09:36:00,
2013-05-16 02:41:00,55.8,50.1,29.61,NW,315,0.0,0.4,81,0.00,,,0.00,WUHU216HW,2013-05-16 09:41:00,
2013-05-16 02:46:00,55.6,49.9,29.61,NW,315,0.0,0.2,81,0.00,,,0.00,WUHU216HW,2013-05-16 09:46:00,
2013-05-16 02:51:00,55.6,49.9,29.61,NW,315,0.0,0.0,81,0.00,,,0.00,WUHU216HW,2013-05-16 09:51:00,
2013-05-16 02:56:00,55.6,49.9,29.61,NW,315,0.0,0.0,81,0.00,,,0.00,WUHU216HW,2013-05-16 09:56:00,
2013-05-16 03:01:00,55.6,49.9,29.61,NW,315,0.0,0.0,81,0.01,,,0.02,WUHU216HW,2013-05-16 10:01:00,
2013-05-16 03:06:00,55.4,49.7,29.60,NW,315,0.0,0.0,81,0.01,,,0.02,WUHU216HW,2013-05-16 10:06:00,
2013-05-16 03:11:00,55.4,49.7,29.60,NW,315,0.0,0.0,81,0.01,,,0.02,WUHU216HW,2013-05-16 10:11:00,
2013-05-16 03:16:00,55.3,49.5,29.60,NW,315,0.0,0.0,81,0.01,,,0.02,WUHU216HW,2013-05-16 10:16:00,
2013-05-16 03:21:00,55.1,49.3,29.60,NW,315,0.0,0.0,81,0.01,,,0.02,WUHU216HW,2013-05-16 10:21:00,
2013-05-16 03:26:00,55.1,49.7,29.60,NW,315,0.0,0.0,82,0.01,,,0.02,WUHU216HW,2013-05-16 10:26:00,
2013-05-16 03:31:00,55.1,49.7,29.60,NW,315,0.0,0.0,82,0.01,,,0.02,WUHU216HW,2013-05-16 10:31:00,
2013-05-16 03:36:00,55.1,49.7,29.60,NW,315,0.0,0.0,82,0.01,,,0.02,WUHU216HW,2013-05-16 10:36:00,
2013-05-16 03:41:00,55.1,49.7,29.60,NW,315,0.0,0.0,82,0.01,,,0.02,WUHU216HW,2013-05-16 10:41:00,
2013-05-16 03:46:00,54.9,49.5,29.60,NW,315,0.0,0.0,82,0.01,,,0.02,WUHU216HW,2013-05-16 10:46:00,
2013-05-16 03:51:00,55.1,49.7,29.60,NW,315,0.0,0.0,82,0.01,,,0.02,WUHU216HW,2013-05-16 10:51:00,
2013-05-16 03:56:00,55.1,49.7,29.60,NW,315,0.0,0.0,82,0.00,,,0.02,WUHU216HW,2013-05-16 10:56:00,
2013-05-16 04:01:00,55.1,49.7,29.60,NW,315,0.0,0.0,82,0.00,,,0.02,WUHU216HW,2013-05-16 11:01:00,
2013-05-16 04:06:00,55.1,49.7,29.60,NW,315,0.0,0.0,82,0.00,,,0.02,WUHU216HW,2013-05-16 11:06:00,
2013-05-16 04:11:00,55.1,49.7,29.60,NW,315,0.0,0.0,82,0.00,,,0.02,WUHU216HW,2013-05-16 11:11:00,
2013-05-16 04:16:00,55.1,49.7,29.60,NW,315,0.0,0.0,82,0.00,,,0.02,WUHU216HW,2013-05-16 11:16:00,
2013-05-16 04:21:00,55.1,50.0,29.59,West,260,0.3,0.7,83,0.01,,,0.02,WUHU216HW,2013-05-16 11:21:00,
2013-05-16 04:26:00,55.1,50.0,29.60,WSW,248,0.0,0.7,83,0.01,,,0.02,WUHU216HW,2013-05-16 11:26:00,
2013-05-16 04:31:00,55.1,50.0,29.59,WSW,248,0.0,0.2,83,0.01,,,0.02,WUHU216HW,2013-05-16 11:31:00,
2013-05-16 04:36:00,55.1,50.0,29.59,WSW,248,0.0,0.0,83,0.01,,,0.02,WUHU216HW,2013-05-16 11:36:00,
2013-05-16 04:41:00,55.1,50.0,29.59,WSW,248,0.0,0.0,83,0.01,,,0.02,WUHU216HW,2013-05-16 11:41:00,
2013-05-16 04:46:00,55.1,50.3,29.59,WSW,248,0.0,0.0,84,0.01,,,0.02,WUHU216HW,2013-05-16 11:46:00,
2013-05-16 04:51:00,55.1,50.3,29.59,SSE,158,0.3,0.4,84,0.01,,,0.02,WUHU216HW,2013-05-16 11:51:00,
2013-05-16 04:56:00,54.9,50.1,29.59,SSE,158,0.4,0.9,84,0.01,,,0.02,WUHU216HW,2013-05-16 11:56:00,
2013-05-16 05:01:00,54.9,50.1,29.59,West,270,0.2,1.8,84,0.02,,,0.04,WUHU216HW,2013-05-16 12:01:00,
2013-05-16 05:06:00,54.7,50.0,29.59,SW,225,0.4,1.8,84,0.02,,,0.04,WUHU216HW,2013-05-16 12:06:00,
2013-05-16 05:11:00,54.7,50.0,29.59,South,180,0.0,0.4,84,0.02,,,0.04,WUHU216HW,2013-05-16 12:11:00,
2013-05-16 05:16:00,54.7,50.2,29.59,South,180,0.0,0.0,85,0.02,,,0.04,WUHU216HW,2013-05-16 12:16:00,
2013-05-16 05:21:00,54.7,50.2,29.59,South,180,0.0,0.0,85,0.01,,,0.04,WUHU216HW,2013-05-16 12:21:00,
2013-05-16 05:26:00,54.7,50.2,29.59,South,180,0.0,0.0,85,0.01,,,0.04,WUHU216HW,2013-05-16 12:26:00,
2013-05-16 05:31:00,54.9,50.1,29.59,South,180,0.0,0.0,84,0.02,,,0.04,WUHU216HW,2013-05-16 12:31:00,
2013-05-16 05:36:00,54.9,50.4,29.59,South,180,0.0,0.2,85,0.02,,,0.04,WUHU216HW,2013-05-16 12:36:00,
2013-05-16 05:41:00,54.9,50.4,29.59,South,180,0.0,0.2,85,0.02,,,0.04,WUHU216HW,2013-05-16 12:41:00,
2013-05-16 05:46:00,54.9,50.4,29.59,SE,135,0.2,0.4,85,0.02,,,0.04,WUHU216HW,2013-05-16 12:46:00,
2013-05-16 05:51:00,54.9,50.4,29.58,East,90,0.4,0.4,85,0.03,,,0.05,WUHU216HW,2013-05-16 12:51:00,
2013-05-16 05:56:00,54.9,50.4,29.59,East,90,0.0,0.4,85,0.02,,,0.05,WUHU216HW,2013-05-16 12:56:00,
2013-05-16 06:01:00,55.1,50.6,29.59,East,90,0.0,0.4,85,0.02,,,0.05,WUHU216HW,2013-05-16 13:01:00,
2013-05-16 06:06:00,55.1,50.6,29.58,SE,135,0.8,0.9,85,0.02,,,0.05,WUHU216HW,2013-05-16 13:06:00,
2013-05-16 06:11:00,55.1,50.6,29.58,SE,135,0.2,0.9,85,0.02,,,0.05,WUHU216HW,2013-05-16 13:11:00,
2013-05-16 06:16:00,55.3,50.8,29.58,SSE,158,0.4,0.7,85,0.02,,,0.05,WUHU216HW,2013-05-16 13:16:00,
2013-05-16 06:21:00,55.3,50.8,29.59,SE,135,0.7,0.9,85,0.02,,,0.05,WUHU216HW,2013-05-16 13:21:00,
2013-05-16 06:26:00,55.4,50.9,29.58,SE,135,0.0,0.9,85,0.02,,,0.05,WUHU216HW,2013-05-16 13:26:00,
2013-05-16 06:31:00,55.6,51.1,29.59,SE,135,0.0,0.9,85,0.01,,,0.05,WUHU216HW,2013-05-16 13:31:00,
2013-05-16 06:36:00,55.8,51.3,29.59,SE,135,0.0,0.9,85,0.01,,,0.05,WUHU216HW,2013-05-16 13:36:00,
2013-05-16 06:41:00,55.6,51.1,29.59,West,270,0.7,1.1,85,0.01,,,0.05,WUHU216HW,2013-05-16 13:41:00,
2013-05-16 06:46:00,55.6,51.1,29.59,SSE,158,0.5,1.1,85,0.02,,,0.07,WUHU216HW,2013-05-16 13:46:00,
2013-05-16 06:51:00,55.4,50.9,29.59,SSE,150,0.6,0.9,85,0.02,,,0.07,WUHU216HW,2013-05-16 13:51:00,
2013-05-16 06:56:00,55.4,50.9,29.59,SE,135,0.2,0.9,85,0.02,,,0.07,WUHU216HW,2013-05-16 13:56:00,
2013-05-16 07:01:00,55.6,51.5,29.59,SE,135,0.2,1.1,86,0.02,,,0.07,WUHU216HW,2013-05-16 14:01:00,
2013-05-16 07:06:00,55.6,51.5,29.59,SE,135,0.7,1.1,86,0.03,,,0.09,WUHU216HW,2013-05-16 14:06:00,
2013-05-16 07:11:00,55.6,51.1,29.59,SE,135,0.4,1.3,85,0.03,,,0.09,WUHU216HW,2013-05-16 14:11:00,
2013-05-16 07:16:00,55.8,51.7,29.59,SE,126,0.9,2.0,86,0.03,,,0.09,WUHU216HW,2013-05-16 14:16:00,
2013-05-16 07:21:00,55.6,51.1,29.59,SE,139,0.5,2.0,85,0.03,,,0.09,WUHU216HW,2013-05-16 14:21:00,
2013-05-16 07:26:00,55.6,51.1,29.59,South,174,0.6,1.1,85,0.03,,,0.09,WUHU216HW,2013-05-16 14:26:00,
2013-05-16 07:31:00,55.6,51.5,29.59,East,90,0.7,1.6,86,0.03,,,0.09,WUHU216HW,2013-05-16 14:31:00,
2013-05-16 07:36:00,55.6,51.5,29.59,SSE,158,0.9,1.8,86,0.03,,,0.09,WUHU216HW,2013-05-16 14:36:00,
2013-05-16 07:41:00,55.8,51.7,29.59,SSE,158,0.4,1.8,86,0.04,,,0.09,WUHU216HW,2013-05-16 14:41:00,
2013-05-16 07:46:00,55.6,51.5,29.59,SSE,158,0.3,1.1,86,0.03,,,0.09,WUHU216HW,2013-05-16 14:46:00,
2013-05-16 07:51:00,55.6,51.5,29.59,East,80,0.9,1.1,86,0.02,,,0.09,WUHU216HW,2013-05-16 14:51:00,
2013-05-16 07:56:00,55.8,51.7,29.59,East,90,0.0,1.1,86,0.02,,,0.09,WUHU216HW,2013-05-16 14:56:00,
2013-05-16 08:01:00,56.0,51.9,29.59,East,90,0.4,0.7,86,0.03,,,0.11,WUHU216HW,2013-05-16 15:01:00,
2013-05-16 08:06:00,56.2,52.0,29.59,East,87,0.5,1.1,86,0.02,,,0.11,WUHU216HW,2013-05-16 15:06:00,
2013-05-16 08:11:00,56.3,52.2,29.59,ENE,76,0.5,1.1,86,0.02,,,0.11,WUHU216HW,2013-05-16 15:11:00,
2013-05-16 08:16:00,56.7,52.2,29.59,East,90,0.4,0.9,85,0.02,,,0.11,WUHU216HW,2013-05-16 15:16:00,
2013-05-16 08:21:00,56.9,52.4,29.59,SSE,158,0.5,0.9,85,0.02,,,0.11,WUHU216HW,2013-05-16 15:21:00,
2013-05-16 08:26:00,56.9,52.4,29.59,ESE,113,0.4,0.9,85,0.02,,,0.11,WUHU216HW,2013-05-16 15:26:00,
2013-05-16 08:31:00,57.1,52.2,29.59,SSE,158,0.4,0.9,84,0.02,,,0.11,WUHU216HW,2013-05-16 15:31:00,
2013-05-16 08:36:00,56.9,52.0,29.59,ENE,77,0.4,0.9,84,0.01,,,0.11,WUHU216HW,2013-05-16 15:36:00,
2013-05-16 08:41:00,56.9,52.4,29.59,SSE,158,0.4,0.9,85,0.01,,,0.11,WUHU216HW,2013-05-16 15:41:00,
2013-05-16 08:46:00,56.7,52.2,29.59,SSE,158,0.4,0.7,85,0.01,,,0.11,WUHU216HW,2013-05-16 15:46:00,
2013-05-16 08:51:00,56.9,52.4,29.59,SSE,158,0.2,0.4,85,0.01,,,0.11,WUHU216HW,2013-05-16 15:51:00,
2013-05-16 08:56:00,57.2,52.7,29.59,ESE,117,0.3,1.1,85,0.00,,,0.11,WUHU216HW,2013-05-16 15:56:00,
2013-05-16 09:01:00,57.6,53.5,29.59,SSE,158,0.5,1.1,86,0.00,,,0.11,WUHU216HW,2013-05-16 16:01:00,
2013-05-16 09:06:00,58.0,53.5,29.59,SSW,201,0.8,1.3,85,0.00,,,0.11,WUHU216HW,2013-05-16 16:06:00,
2013-05-16 09:11:00,58.0,53.5,29.59,SE,135,0.2,1.6,85,0.00,,,0.11,WUHU216HW,2013-05-16 16:11:00,
2013-05-16 09:16:00,58.0,53.5,29.59,South,180,0.2,1.6,85,0.00,,,0.11,WUHU216HW,2013-05-16 16:16:00,
2013-05-16 09:21:00,58.0,53.5,29.59,SE,135,0.7,0.9,85,0.00,,,0.11,WUHU216HW,2013-05-16 16:21:00,
2013-05-16 09:26:00,58.0,53.5,29.59,SSE,158,0.4,1.1,85,0.00,,,0.11,WUHU216HW,2013-05-16 16:26:00,
2013-05-16 09:31:00,58.0,53.5,29.59,South,180,1.3,1.3,85,0.00,,,0.11,WUHU216HW,2013-05-16 16:31:00,
2013-05-16 09:36:00,58.0,53.5,29.59,SSE,158,1.1,1.6,85,0.00,,,0.11,WUHU216HW,2013-05-16 16:36:00,
2013-05-16 09:41:00,58.1,53.6,29.59,SW,216,0.3,2.0,85,0.00,,,0.11,WUHU216HW,2013-05-16 16:41:00,
2013-05-16 09:46:00,58.5,54.0,29.59,SSE,158,1.1,2.0,85,0.00,,,0.11,WUHU216HW,2013-05-16 16:46:00,
2013-05-16 09:51:00,58.7,54.2,29.59,WSW,251,1.3,1.8,85,0.00,,,0.11,WUHU216HW,2013-05-16 16:51:00,
2013-05-16 09:56:00,58.9,54.4,29.59,SW,221,0.6,1.8,85,0.00,,,0.11,WUHU216HW,2013-05-16 16:56:00,
2013-05-16 10:01:00,58.9,54.0,29.59,South,180,0.5,1.8,84,0.00,,,0.11,WUHU216HW,2013-05-16 17:01:00,
2013-05-16 10:06:00,58.7,53.6,29.59,WSW,243,1.5,3.4,83,0.00,,,0.11,WUHU216HW,2013-05-16 17:06:00,
2013-05-16 10:11:00,58.7,53.6,29.59,SSE,158,1.8,3.4,83,0.01,,,0.11,WUHU216HW,2013-05-16 17:11:00,
2013-05-16 10:16:00,58.7,53.6,29.59,SSE,158,0.9,1.8,83,0.01,,,0.11,WUHU216HW,2013-05-16 17:16:00,
2013-05-16 10:21:00,58.5,53.4,29.60,SW,225,2.0,2.0,83,0.01,,,0.11,WUHU216HW,2013-05-16 17:21:00,
2013-05-16 10:26:00,58.3,53.2,29.59,WSW,245,0.4,2.2,83,0.01,,,0.11,WUHU216HW,2013-05-16 17:26:00,
2013-05-16 10:31:00,58.5,53.4,29.60,WSW,241,1.4,3.6,83,0.01,,,0.11,WUHU216HW,2013-05-16 17:31:00,
2013-05-16 10:36:00,58.3,52.8,29.60,SE,135,1.3,3.6,82,0.01,,,0.11,WUHU216HW,2013-05-16 17:36:00,
2013-05-16 10:41:00,58.0,52.8,29.60,WSW,248,0.9,1.8,83,0.02,,,0.13,WUHU216HW,2013-05-16 17:41:00,
2013-05-16 10:46:00,58.0,52.8,29.60,West,271,0.9,1.3,83,0.02,,,0.13,WUHU216HW,2013-05-16 17:46:00,
2013-05-16 10:51:00,58.1,53.0,29.60,SSW,208,0.4,1.6,83,0.02,,,0.13,WUHU216HW,2013-05-16 17:51:00,
2013-05-16 10:56:00,58.3,53.2,29.60,South,180,1.1,1.6,83,0.03,,,0.14,WUHU216HW,2013-05-16 17:56:00,
2013-05-16 11:01:00,58.7,53.6,29.60,SW,234,1.2,1.8,83,0.03,,,0.14,WUHU216HW,2013-05-16 18:01:00,
2013-05-16 11:06:00,58.7,53.6,29.60,SW,225,2.0,2.0,83,0.03,,,0.14,WUHU216HW,2013-05-16 18:06:00,
2013-05-16 11:11:00,58.0,52.8,29.60,SW,229,1.5,2.7,83,0.03,,,0.15,WUHU216HW,2013-05-16 18:11:00,
2013-05-16 11:16:00,58.0,52.8,29.60,SW,219,0.9,2.7,83,0.04,,,0.16,WUHU216HW,2013-05-16 18:16:00,
2013-05-16 11:21:00,58.0,53.1,29.60,WNW,292,0.7,1.6,84,0.04,,,0.16,WUHU216HW,2013-05-16 18:21:00,
2013-05-16 11:26:00,58.5,53.6,29.60,WNW,284,2.0,2.9,84,0.04,,,0.16,WUHU216HW,2013-05-16 18:26:00,
2013-05-16 11:31:00,59.2,54.4,29.60,SSE,158,2.5,2.9,84,0.05,,,0.17,WUHU216HW,2013-05-16 18:31:00,
2013-05-16 11:37:00,59.2,54.1,29.60,SSE,164,1.4,4.7,83,0.05,,,0.17,WUHU216HW,2013-05-16 18:37:00,
2013-05-16 11:42:00,58.7,53.6,29.60,WSW,237,1.9,4.7,83,0.04,,,0.17,WUHU216HW,2013-05-16 18:42:00,
2013-05-16 11:47:00,58.7,53.6,29.61,WSW,241,1.1,4.0,83,0.04,,,0.17,WUHU216HW,2013-05-16 18:47:00,
2013-05-16 11:52:00,59.0,53.9,29.60,SSW,203,1.1,4.0,83,0.05,,,0.18,WUHU216HW,2013-05-16 18:52:00,
2013-05-16 11:57:00,58.9,53.7,29.60,East,90,1.1,2.2,83,0.04,,,0.18,WUHU216HW,2013-05-16 18:57:00,
2013-05-16 12:02:00,58.9,53.7,29.61,SSW,210,1.5,3.6,83,0.04,,,0.18,WUHU216HW,2013-05-16 19:02:00,
2013-05-16 12:07:00,59.0,53.9,29.60,SSW,209,1.1,3.6,83,0.05,,,0.18,WUHU216HW,2013-05-16 19:07:00,
2013-05-16 12:12:00,59.4,54.3,29.61,SSE,152,1.0,2.2,83,0.04,,,0.18,WUHU216HW,2013-05-16 19:12:00,
2013-05-16 12:17:00,59.6,54.5,29.60,SW,235,1.5,4.0,83,0.03,,,0.18,WUHU216HW,2013-05-16 19:17:00,
2013-05-16 12:22:00,59.8,54.6,29.60,SE,144,1.6,4.0,83,0.03,,,0.18,WUHU216HW,2013-05-16 19:22:00,
2013-05-16 12:27:00,59.8,54.6,29.60,SSE,153,2.5,4.5,83,0.03,,,0.18,WUHU216HW,2013-05-16 19:27:00,
2013-05-16 12:32:00,60.1,55.0,29.60,WSW,248,1.8,4.5,83,0.02,,,0.18,WUHU216HW,2013-05-16 19:32:00,
2013-05-16 12:37:00,60.8,55.7,29.60,SSW,208,1.7,3.4,83,0.02,,,0.18,WUHU216HW,2013-05-16 19:37:00,
2013-05-16 12:42:00,61.0,55.2,29.60,SSE,164,1.9,3.4,81,0.02,,,0.18,WUHU216HW,2013-05-16 19:42:00,
2013-05-16 12:47:00,60.8,55.1,29.60,SW,232,2.0,3.4,81,0.02,,,0.18,WUHU216HW,2013-05-16 19:47:00,
2013-05-16 12:52:00,61.0,54.9,29.60,ESE,113,3.4,4.3,80,0.01,,,0.18,WUHU216HW,2013-05-16 19:52:00,
2013-05-16 12:57:00,61.2,55.1,29.60,SE,129,2.0,4.3,80,0.01,,,0.18,WUHU216HW,2013-05-16 19:57:00,
2013-05-16 13:02:00,61.4,55.2,29.60,West,269,0.8,3.4,80,0.01,,,0.18,WUHU216HW,2013-05-16 20:02:00,
2013-05-16 13:07:00,61.6,54.6,29.60,SSE,159,2.3,4.0,78,0.00,,,0.18,WUHU216HW,2013-05-16 20:07:00,
2013-05-16 13:12:00,61.9,55.0,29.60,SSW,203,2.9,4.0,78,0.00,,,0.18,WUHU216HW,2013-05-16 20:12:00,
2013-05-16 13:17:00,61.9,54.3,29.60,SW,225,1.1,2.9,76,0.00,,,0.18,WUHU216HW,2013-05-16 20:17:00,
2013-05-16 13:22:00,62.1,54.5,29.60,SSE,158,4.0,4.0,76,0.00,,,0.18,WUHU216HW,2013-05-16 20:22:00,
2013-05-16 13:27:00,62.5,54.0,29.60,ESE,113,2.5,4.3,74,0.00,,,0.18,WUHU216HW,2013-05-16 20:27:00,
2013-05-16 13:32:00,62.6,54.2,29.60,SSE,156,0.9,4.3,74,0.00,,,0.18,WUHU216HW,2013-05-16 20:32:00,
2013-05-16 13:37:00,62.8,54.7,29.60,SSE,150,2.1,3.8,75,0.00,,,0.18,WUHU216HW,2013-05-16 20:37:00,
2013-05-16 13:42:00,63.0,54.5,29.60,South,171,1.2,3.8,74,0.00,,,0.18,WUHU216HW,2013-05-16 20:42:00,
2013-05-16 13:47:00,62.3,53.5,29.60,ESE,123,1.4,3.4,73,0.00,,,0.18,WUHU216HW,2013-05-16 20:47:00,
2013-05-16 13:52:00,61.7,53.0,29.60,SSE,162,1.5,3.6,73,0.00,,,0.18,WUHU216HW,2013-05-16 20:52:00,
2013-05-16 13:57:00,61.4,53.0,29.59,SE,135,2.7,3.6,74,0.00,,,0.18,WUHU216HW,2013-05-16 20:57:00,
2013-05-16 14:02:00,61.4,53.4,29.59,SE,135,2.2,4.0,75,0.00,,,0.18,WUHU216HW,2013-05-16 21:02:00,
2013-05-16 14:07:00,61.9,53.9,29.59,East,92,0.9,4.0,75,0.00,,,0.18,WUHU216HW,2013-05-16 21:07:00,
2013-05-16 14:12:00,62.3,54.2,29.59,SSE,163,0.9,2.9,75,0.00,,,0.18,WUHU216HW,2013-05-16 21:12:00,
2013-05-16 14:17:00,62.3,53.5,29.59,SE,142,1.7,2.5,73,0.00,,,0.18,WUHU216HW,2013-05-16 21:17:00,
2013-05-16 14:22:00,62.3,53.5,29.59,ESE,119,1.8,3.6,73,0.00,,,0.18,WUHU216HW,2013-05-16 21:22:00,
2013-05-16 14:27:00,62.6,53.8,29.59,SSE,154,1.7,3.6,73,0.00,,,0.18,WUHU216HW,2013-05-16 21:27:00,
2013-05-16 14:32:00,63.4,54.5,29.59,SE,133,2.1,5.6,73,0.00,,,0.18,WUHU216HW,2013-05-16 21:32:00,
2013-05-16 14:37:00,63.7,54.5,29.59,ESE,113,1.6,5.6,72,0.00,,,0.18,WUHU216HW,2013-05-16 21:37:00,
2013-05-16 14:42:00,64.3,55.1,29.59,SSE,164,2.2,4.3,72,0.00,,,0.18,WUHU216HW,2013-05-16 21:42:00,
2013-05-16 14:47:00,64.4,54.9,29.59,SW,225,2.7,4.3,71,0.00,,,0.18,WUHU216HW,2013-05-16 21:47:00,
2013-05-16 14:52:00,64.8,55.3,29.59,SSE,158,2.5,4.5,71,0.00,,,0.18,WUHU216HW,2013-05-16 21:52:00,
2013-05-16 14:57:00,64.8,54.9,29.59,South,187,1.1,4.5,70,0.00,,,0.18,WUHU216HW,2013-05-16 21:57:00,
2013-05-16 15:02:00,64.8,54.9,29.59,WSW,248,2.2,2.2,70,0.00,,,0.18,WUHU216HW,2013-05-16 22:02:00,
2013-05-16 15:07:00,65.5,55.5,29.59,SSE,158,2.1,3.6,70,0.00,,,0.18,WUHU216HW,2013-05-16 22:07:00,
2013-05-16 15:12:00,65.9,55.5,29.58,East,90,2.9,3.6,69,0.00,,,0.18,WUHU216HW,2013-05-16 22:12:00,
2013-05-16 15:17:00,66.4,55.5,29.58,SSE,158,1.8,3.4,68,0.00,,,0.18,WUHU216HW,2013-05-16 22:17:00,
2013-05-16 15:22:00,66.1,54.7,29.58,South,180,0.4,3.4,67,0.00,,,0.18,WUHU216HW,2013-05-16 22:22:00,
2013-05-16 15:27:00,65.3,54.1,29.58,SSE,150,2.1,3.4,67,0.00,,,0.18,WUHU216HW,2013-05-16 22:27:00,
2013-05-16 15:32:00,65.0,54.2,29.58,SE,143,2.0,3.4,68,0.00,,,0.18,WUHU216HW,2013-05-16 22:32:00,
2013-05-16 15:37:00,65.2,53.9,29.59,WSW,244,3.2,4.3,67,0.00,,,0.18,WUHU216HW,2013-05-16 22:37:00,
2013-05-16 15:42:00,65.0,52.9,29.59,SSE,158,1.8,4.7,65,0.00,,,0.18,WUHU216HW,2013-05-16 22:42:00,
2013-05-16 15:47:00,64.4,52.4,29.59,SSW,203,4.7,4.7,65,0.00,,,0.18,WUHU216HW,2013-05-16 22:47:00,
2013-05-16 15:52:00,63.7,52.1,29.59,ESE,118,1.4,4.7,66,0.00,,,0.18,WUHU216HW,2013-05-16 22:52:00,
2013-05-16 15:57:00,63.7,53.0,29.59,SSE,168,1.5,4.7,68,0.00,,,0.18,WUHU216HW,2013-05-16 22:57:00,
2013-05-16 16:02:00,64.1,53.7,29.59,WNW,295,3.7,4.9,69,0.00,,,0.18,WUHU216HW,2013-05-16 23:02:00,
2013-05-16 16:07:00,64.3,53.5,29.59,NNW,329,2.1,4.9,68,0.00,,,0.18,WUHU216HW,2013-05-16 23:07:00,
2013-05-16 16:12:00,63.7,53.0,29.59,SW,225,4.0,5.6,68,0.00,,,0.18,WUHU216HW,2013-05-16 23:12:00,
2013-05-16 16:17:00,63.5,53.2,29.59,North,0,3.4,5.6,69,0.00,,,0.18,WUHU216HW,2013-05-16 23:17:00,
2013-05-16 16:22:00,63.7,53.4,29.59,NW,314,2.9,4.7,69,0.00,,,0.18,WUHU216HW,2013-05-16 23:22:00,
2013-05-16 16:27:00,63.2,52.8,29.59,NW,324,2.1,4.0,69,0.00,,,0.18,WUHU216HW,2013-05-16 23:27:00,
2013-05-16 16:32:00,63.2,53.3,29.59,SW,225,1.6,3.1,70,0.00,,,0.18,WUHU216HW,2013-05-16 23:32:00,
2013-05-16 16:37:00,63.2,53.3,29.59,SSW,202,0.8,2.9,70,0.00,,,0.18,WUHU216HW,2013-05-16 23:37:00,
2013-05-16 16:42:00,63.4,53.0,29.58,West,265,1.7,4.0,69,0.00,,,0.18,WUHU216HW,2013-05-16 23:42:00,
2013-05-16 16:47:00,63.4,52.7,29.58,SW,225,3.1,4.0,68,0.00,,,0.18,WUHU216HW,2013-05-16 23:47:00,
2013-05-16 16:52:00,63.4,52.7,29.58,WSW,248,2.0,4.9,68,0.00,,,0.18,WUHU216HW,2013-05-16 23:52:00,
2013-05-16 16:57:00,63.2,52.5,29.58,WSW,254,1.1,4.9,68,0.00,,,0.18,WUHU216HW,2013-05-16 23:57:00,
2013-05-16 17:02:00,63.2,52.5,29.59,SE,135,0.6,2.5,68,0.00,,,0.18,WUHU216HW,2013-05-17 00:02:00,
2013-05-16 17:08:00,63.2,52.5,29.58,SSE,158,1.3,1.3,68,0.00,,,0.18,WUHU216HW,2013-05-17 00:08:00,
2013-05-16 17:13:00,63.5,52.4,29.58,SSE,158,1.8,2.2,67,0.00,,,0.18,WUHU216HW,2013-05-17 00:13:00,
2013-05-16 17:18:00,63.7,52.6,29.58,NW,315,1.3,2.2,67,0.00,,,0.18,WUHU216HW,2013-05-17 00:18:00,
2013-05-16 17:23:00,63.7,52.6,29.59,SW,234,1.0,2.9,67,0.00,,,0.18,WUHU216HW,2013-05-17 00:23:00,
2013-05-16 17:28:00,63.7,51.7,29.59,West,276,1.2,3.1,65,0.00,,,0.18,WUHU216HW,2013-05-17 00:28:00,
2013-05-16 17:33:00,63.7,51.7,29.59,WSW,248,0.9,3.4,65,0.00,,,0.18,WUHU216HW,2013-05-17 00:33:00,
2013-05-16 17:38:00,63.7,51.7,29.59,SW,225,0.9,3.4,65,0.00,,,0.18,WUHU216HW,2013-05-17 00:38:00,
2013-05-16 17:43:00,63.5,51.6,29.59,West,269,0.9,2.2,65,0.00,,,0.18,WUHU216HW,2013-05-17 00:43:00,
2013-05-16 17:48:00,63.7,51.7,29.59,NW,315,2.5,3.4,65,0.00,,,0.18,WUHU216HW,2013-05-17 00:48:00,
2013-05-16 17:53:00,63.7,51.3,29.59,WNW,302,1.9,3.4,64,0.00,,,0.18,WUHU216HW,2013-05-17 00:53:00,
2013-05-16 17:58:00,63.4,51.4,29.59,West,270,1.8,3.4,65,0.00,,,0.18,WUHU216HW,2013-05-17 00:58:00,
2013-05-16 18:03:00,63.2,51.2,29.59,SW,225,0.4,2.0,65,0.00,,,0.18,WUHU216HW,2013-05-17 01:03:00,
2013-05-16 18:08:00,63.0,51.0,29.59,SW,225,1.8,2.5,65,0.00,,,0.18,WUHU216HW,2013-05-17 01:08:00,
2013-05-16 18:13:00,63.0,50.6,29.58,West,264,1.2,3.8,64,0.00,,,0.18,WUHU216HW,2013-05-17 01:13:00,
2013-05-16 18:18:00,62.8,50.4,29.58,WSW,254,1.7,3.8,64,0.00,,,0.18,WUHU216HW,2013-05-17 01:18:00,
2013-05-16 18:23:00,63.0,51.0,29.59,SW,225,1.8,3.4,65,0.00,,,0.18,WUHU216HW,2013-05-17 01:23:00,
2013-05-16 18:28:00,62.8,50.4,29.59,NNW,346,0.5,2.2,64,0.00,,,0.18,WUHU216HW,2013-05-17 01:28:00,
2013-05-16 18:33:00,62.8,50.9,29.59,SSE,165,0.6,2.2,65,0.00,,,0.18,WUHU216HW,2013-05-17 01:33:00,
2013-05-16 18:38:00,62.8,50.9,29.59,SE,125,0.5,1.1,65,0.00,,,0.18,WUHU216HW,2013-05-17 01:38:00,
2013-05-16 18:43:00,63.0,51.0,29.59,SSW,203,0.2,1.1,65,0.00,,,0.18,WUHU216HW,2013-05-17 01:43:00,
2013-05-16 18:48:00,63.0,50.6,29.59,NW,315,1.1,1.8,64,0.00,,,0.18,WUHU216HW,2013-05-17 01:48:00,
2013-05-16 18:53:00,63.2,50.8,29.59,WSW,243,2.4,4.0,64,0.00,,,0.18,WUHU216HW,2013-05-17 01:53:00,
2013-05-16 18:58:00,62.6,49.9,29.59,SSW,213,1.7,4.0,63,0.00,,,0.18,WUHU216HW,2013-05-17 01:58:00,
2013-05-16 19:03:00,62.3,50.0,29.59,SSW,201,0.7,3.4,64,0.00,,,0.18,WUHU216HW,2013-05-17 02:03:00,
2013-05-16 19:08:00,62.1,50.2,29.59,WSW,248,1.1,1.8,65,0.00,,,0.18,WUHU216HW,2013-05-17 02:08:00,
2013-05-16 19:13:00,61.9,50.1,29.59,WSW,248,1.0,2.5,65,0.00,,,0.18,WUHU216HW,2013-05-17 02:13:00,
2013-05-16 19:18:00,61.6,49.3,29.59,NW,314,1.6,2.5,64,0.00,,,0.18,WUHU216HW,2013-05-17 02:18:00,
2013-05-16 19:23:00,61.2,49.4,29.59,South,180,0.3,2.2,65,0.00,,,0.18,WUHU216HW,2013-05-17 02:23:00,
2013-05-16 19:28:00,61.0,49.2,29.59,WSW,248,0.9,1.8,65,0.00,,,0.18,WUHU216HW,2013-05-17 02:28:00,
2013-05-16 19:33:00,61.0,49.2,29.60,WSW,248,1.8,2.5,65,0.00,,,0.18,WUHU216HW,2013-05-17 02:33:00,
2013-05-16 19:38:00,60.8,49.1,29.60,SSW,201,0.4,2.5,65,0.00,,,0.18,WUHU216HW,2013-05-17 02:38:00,
2013-05-16 19:43:00,60.7,48.9,29.60,ESE,113,0.3,1.8,65,0.00,,,0.18,WUHU216HW,2013-05-17 02:43:00,
2013-05-16 19:48:00,60.5,48.7,29.60,WNW,301,0.6,1.1,65,0.00,,,0.18,WUHU216HW,2013-05-17 02:48:00,
2013-05-16 19:53:00,60.3,49.0,29.60,WSW,250,1.0,1.3,66,0.00,,,0.18,WUHU216HW,2013-05-17 02:53:00,
2013-05-16 19:58:00,60.1,48.8,29.60,West,270,0.0,1.3,66,0.00,,,0.18,WUHU216HW,2013-05-17 02:58:00,
2013-05-16 20:03:00,60.1,48.8,29.60,WSW,255,1.0,1.1,66,0.00,,,0.18,WUHU216HW,2013-05-17 03:03:00,
2013-05-16 20:08:00,60.1,48.8,29.60,WNW,293,0.0,1.1,66,0.00,,,0.18,WUHU216HW,2013-05-17 03:08:00,
2013-05-16 20:13:00,59.9,49.0,29.60,NW,315,0.7,0.7,67,0.00,,,0.18,WUHU216HW,2013-05-17 03:13:00,
2013-05-16 20:18:00,59.8,48.8,29.60,NNE,21,0.5,1.1,67,0.00,,,0.18,WUHU216HW,2013-05-17 03:18:00,
2013-05-16 20:23:00,59.8,48.8,29.60,NNE,23,0.0,1.1,67,0.00,,,0.18,WUHU216HW,2013-05-17 03:23:00,
2013-05-16 20:28:00,59.4,48.9,29.60,NE,45,0.3,0.9,68,0.00,,,0.18,WUHU216HW,2013-05-17 03:28:00,
2013-05-16 20:33:00,59.4,48.9,29.60,NE,45,0.0,0.9,68,0.00,,,0.18,WUHU216HW,2013-05-17 03:33:00,
2013-05-16 20:38:00,59.2,49.1,29.60,NNE,23,0.2,0.2,69,0.00,,,0.18,WUHU216HW,2013-05-17 03:38:00,
2013-05-16 20:43:00,59.0,49.3,29.60,NNW,338,0.0,0.2,70,0.00,,,0.18,WUHU216HW,2013-05-17 03:43:00,
2013-05-16 20:48:00,58.7,49.3,29.61,NNW,338,0.0,0.0,71,0.00,,,0.18,WUHU216HW,2013-05-17 03:48:00,
2013-05-16 20:53:00,58.7,49.7,29.61,NNW,338,0.0,0.0,72,0.00,,,0.18,WUHU216HW,2013-05-17 03:53:00,
2013-05-16 20:58:00,58.7,50.0,29.61,West,270,0.4,0.4,73,0.00,,,0.18,WUHU216HW,2013-05-17 03:58:00,
2013-05-16 21:01:00,58.5,49.5,29.61,NNW,340,0.5,0.7,72,0.00,,,0.18,WUHU216HW,2013-05-17 04:01:00,
2013-05-16 21:06:00,58.3,49.0,29.61,West,277,0.5,1.3,71,0.00,,,0.18,WUHU216HW,2013-05-17 04:06:00,
2013-05-16 21:11:00,58.3,49.0,29.61,SW,225,0.3,1.6,71,0.00,,,0.18,WUHU216HW,2013-05-17 04:11:00,
2013-05-16 21:16:00,58.1,48.8,29.61,West,268,0.7,3.1,71,0.00,,,0.18,WUHU216HW,2013-05-17 04:16:00,
2013-05-16 21:21:00,58.0,48.6,29.61,West,270,0.4,3.1,71,0.00,,,0.18,WUHU216HW,2013-05-17 04:21:00,
2013-05-16 21:26:00,58.0,48.6,29.62,WSW,251,0.6,1.3,71,0.00,,,0.18,WUHU216HW,2013-05-17 04:26:00,
2013-05-16 21:31:00,57.8,48.4,29.62,SSW,211,0.9,1.8,71,0.00,,,0.18,WUHU216HW,2013-05-17 04:31:00,
2013-05-16 21:36:00,57.4,48.4,29.62,SE,135,0.3,1.8,72,0.00,,,0.18,WUHU216HW,2013-05-17 04:36:00,
2013-05-16 21:41:00,57.2,48.2,29.62,NNW,337,0.5,1.1,72,0.00,,,0.18,WUHU216HW,2013-05-17 04:41:00,
2013-05-16 21:46:00,56.9,48.2,29.62,West,270,0.0,1.1,73,0.00,,,0.18,WUHU216HW,2013-05-17 04:46:00,
2013-05-16 21:51:00,56.9,48.2,29.62,WSW,245,0.6,1.1,73,0.00,,,0.18,WUHU216HW,2013-05-17 04:51:00,
2013-05-16 21:56:00,56.9,48.6,29.63,NNW,338,0.0,0.9,74,0.00,,,0.18,WUHU216HW,2013-05-17 04:56:00,
2013-05-16 22:01:00,56.7,48.1,29.63,NW,315,0.4,1.1,73,0.00,,,0.18,WUHU216HW,2013-05-17 05:01:00,
2013-05-16 22:06:00,56.7,48.1,29.63,NW,315,0.0,1.1,73,0.00,,,0.18,WUHU216HW,2013-05-17 05:06:00,
2013-05-16 22:11:00,56.5,48.2,29.63,NW,315,0.0,0.0,74,0.00,,,0.18,WUHU216HW,2013-05-17 05:11:00,
2013-05-16 22:16:00,56.3,48.5,29.63,NW,315,0.0,0.0,75,0.00,,,0.18,WUHU216HW,2013-05-17 05:16:00,
2013-05-16 22:21:00,56.2,48.3,29.63,NW,315,0.0,0.0,75,0.00,,,0.18,WUHU216HW,2013-05-17 05:21:00,
2013-05-16 22:26:00,56.0,48.2,29.63,NW,315,0.0,0.2,75,0.00,,,0.18,WUHU216HW,2013-05-17 05:26:00,
2013-05-16 22:31:00,55.8,48.3,29.63,NW,315,0.0,0.2,76,0.00,,,0.18,WUHU216HW,2013-05-17 05:31:00,
2013-05-16 22:36:00,55.6,48.2,29.63,NW,315,0.0,0.0,76,0.00,,,0.18,WUHU216HW,2013-05-17 05:36:00,
2013-05-16 22:41:00,55.4,48.0,29.63,NW,315,0.7,0.9,76,0.00,,,0.18,WUHU216HW,2013-05-17 05:41:00,
2013-05-16 22:46:00,55.3,47.8,29.63,NW,315,0.0,0.9,76,0.00,,,0.18,WUHU216HW,2013-05-17 05:46:00,
2013-05-16 22:51:00,55.1,47.6,29.63,NW,315,0.0,0.7,76,0.00,,,0.18,WUHU216HW,2013-05-17 05:51:00,
2013-05-16 22:56:00,55.1,48.0,29.63,NW,315,0.2,0.2,77,0.00,,,0.18,WUHU216HW,2013-05-17 05:56:00,
2013-05-16 23:01:00,54.9,47.8,29.63,NW,315,0.0,0.2,77,0.00,,,0.18,WUHU216HW,2013-05-17 06:01:00,
2013-05-16 23:06:00,54.5,47.4,29.63,NW,315,0.0,0.0,77,0.00,,,0.18,WUHU216HW,2013-05-17 06:06:00,
2013-05-16 23:11:00,54.4,47.0,29.63,NW,315,0.0,0.2,76,0.00,,,0.18,WUHU216HW,2013-05-17 06:11:00,
2013-05-16 23:16:00,54.2,46.8,29.64,WSW,248,0.8,0.9,76,0.00,,,0.18,WUHU216HW,2013-05-17 06:16:00,
2013-05-16 23:21:00,53.8,46.5,29.63,West,270,0.0,0.9,76,0.00,,,0.18,WUHU216HW,2013-05-17 06:21:00,
2013-05-16 23:26:00,53.6,46.3,29.63,West,270,0.0,0.2,76,0.00,,,0.18,WUHU216HW,2013-05-17 06:26:00,
2013-05-16 23:31:00,53.3,45.9,29.64,West,270,0.0,0.0,76,0.00,,,0.18,WUHU216HW,2013-05-17 06:31:00,
2013-05-16 23:36:00,52.9,45.9,29.64,West,270,0.0,0.0,77,0.00,,,0.18,WUHU216HW,2013-05-17 06:36:00,
2013-05-16 23:41:00,52.7,45.7,29.64,West,270,0.0,0.0,77,0.00,,,0.18,WUHU216HW,2013-05-17 06:41:00,
2013-05-16 23:46:00,52.4,45.4,29.64,West,270,0.0,0.0,77,0.00,,,0.18,WUHU216HW,2013-05-17 06:46:00,
2013-05-16 23:51:00,52.2,45.5,29.64,WSW,248,0.6,0.7,78,0.00,,,0.18,WUHU216HW,2013-05-17 06:51:00,
2013-05-16 23:56:00,52.0,45.4,29.64,West,270,0.0,0.7,78,0.00,,,0.18,WUHU216HW,2013-05-17 06:56:00,